DL6MAA-11 Weather Reports


time (UTC)temp
C
wind
direction
speed
KPH
gust
KPH
rain 1hr
cm
rain 24hr
cm
rain mn
cm
humidity
%
barometer
mb
20260901141203 22 284 1.6 0.0 0.00 0.00 0.00 51 1019.0
20260901140715 21 340 1.6 0.0 0.00 0.00 0.00 51 1019.0
20260901140208 22 347 6.4 0.0 0.00 0.00 0.00 51 1019.0
20260901135703 22 295 6.4 0.0 0.00 0.00 0.00 49 1019.1
20260901135218 22 360 4.8 0.0 0.00 0.00 0.00 51 1019.1
20260901134718 22 302 4.8 0.0 0.00 0.00 0.00 49 1019.1
20260901134216 22 302 1.6 0.0 0.00 0.00 0.00 48 1018.9
20260901133704 23 244 3.2 0.0 0.00 0.00 0.00 48 1018.9
20260901133218 23 360 4.8 0.0 0.00 0.00 0.00 50 1018.9
20260901132713 23 277 3.2 0.0 0.00 0.00 0.00 51 1019.2
20260901132207 23 184 1.6 0.0 0.00 0.00 0.00 49 1019.2
20260901131722 23 233 3.2 0.0 0.00 0.00 0.00 48 1019.2
20260901131222 22 360 6.4 0.0 0.00 0.00 0.00 50 1019.6
20260901130717 22 278 8.0 0.0 0.00 0.00 0.00 50 1019.6
20260901130217 22 360 6.4 0.0 0.00 0.00 0.00 52 1019.6
20260901125711 21 360 3.2 0.0 0.00 0.00 0.00 52 1019.5
20260901125205 22 330 4.8 0.0 0.00 0.00 0.00 52 1019.5
20260901124719 22 360 4.8 0.0 0.00 0.00 0.00 50 1019.5
20260901124214 22 279 1.6 0.0 0.00 0.00 0.00 53 1019.7
20260901123708 21 234 1.6 0.0 0.00 0.00 0.00 54 1019.7
20260901123203 21 236 3.2 0.0 0.00 0.00 0.00 54 1019.7
20260901122716 21 194 4.8 0.0 0.00 0.00 0.00 56 1019.9
20260901122212 21 272 4.8 0.0 0.00 0.00 0.00 56 1019.9
20260901121703 21 279 4.8 0.0 0.00 0.00 0.00 56 1019.9
20260901121217 21 317 4.8 0.0 0.00 0.00 0.00 56 1019.6
20260901120711 21 272 4.8 0.0 0.00 0.00 0.00 54 1019.6
20260901120206 22 360 4.8 0.0 0.00 0.00 0.00 53 1019.6
20260901115659 22 282 4.8 0.0 0.00 0.00 0.00 52 1019.6
20260901115214 22 176 1.6 0.0 0.00 0.00 0.00 53 1019.6
20260901114722 22 319 3.2 0.0 0.00 0.00 0.00 53 1019.6
20260901114208 22 244 4.8 0.0 0.00 0.00 0.00 53 1020.0
20260901113708 21 274 8.0 0.0 0.00 0.00 0.00 55 1020.0
20260901113216 21 296 8.0 0.0 0.00 0.00 0.00 55 1020.0
20260901112711 21 360 4.8 0.0 0.00 0.00 0.00 55 1020.1
20260901112205 22 317 4.8 0.0 0.00 0.00 0.00 54 1020.1
20260901111717 21 313 4.8 0.0 0.00 0.00 0.00 57 1020.1
20260901111206 21 303 6.4 0.0 0.00 0.00 0.00 56 1020.2
20260901110712 21 321 8.0 0.0 0.00 0.00 0.00 56 1020.2
20260901110201 21 360 6.4 0.0 0.00 0.00 0.00 54 1020.2
20260901105700 21 302 4.8 0.0 0.00 0.00 0.00 54 1019.7
20260901105210 21 278 4.8 0.0 0.00 0.00 0.00 54 1019.7
20260901104704 22 360 3.2 0.0 0.00 0.00 0.00 52 1019.7
20260901104216 22 268 1.6 0.0 0.00 0.00 0.00 53 1020.2
20260901103705 22 236 1.6 0.0 0.00 0.00 0.00 56 1020.2
20260901103206 21 311 1.6 0.0 0.00 0.00 0.00 56 1020.2
20260901102715 21 360 1.6 0.0 0.00 0.00 0.00 55 1019.7
20260901102200 21 360 3.2 0.0 0.00 0.00 0.00 57 1019.7
20260901101706 20 265 6.4 0.0 0.00 0.00 0.00 58 1019.7
20260901101201 20 255 4.8 0.0 0.00 0.00 0.00 58 1020.4
20260901100716 20 270 3.2 0.0 0.00 0.00 0.00 58 1020.4
20260901100210 21 360 4.8 0.0 0.00 0.00 0.00 57 1020.4
20260901095704 21 254 4.8 0.0 0.00 0.00 0.00 53 1020.3
20260901095217 22 275 6.4 0.0 0.00 0.00 0.00 55 1020.3
20260901094712 21 0.0 0.0 0.00 0.00 0.00 55 1020.3
20260901094205 21 276 4.8 0.0 0.00 0.00 0.00 56 1020.4
20260901093700 21 187 4.8 0.0 0.00 0.00 0.00 55 1020.4
20260901093214 21 360 4.8 0.0 0.00 0.00 0.00 57 1020.4
20260901092709 21 360 3.2 0.0 0.00 0.00 0.00 57 1019.8
20260901092218 21 187 1.6 0.0 0.00 0.00 0.00 57 1019.8
20260901091709 20 360 1.6 0.0 0.00 0.00 0.00 58 1019.8
20260901091218 19 360 4.8 0.0 0.00 0.00 0.00 60 1019.8
20260901090721 19 246 4.8 0.0 0.00 0.00 0.00 58 1019.8
20260901090210 20 286 1.6 0.0 0.00 0.00 0.00 58 1019.8
20260901085713 20 311 1.6 0.0 0.00 0.00 0.00 58 1020.2
20260901085220 20 311 3.2 0.0 0.00 0.00 0.00 59 1020.2
20260901084704 -17 0.0 0.0 0.00 0.00 0.00 1020.2
20260901084214 -17 0.0 0.0 0.00 0.00 0.00 1020.1
20260901083706 -17 0.0 0.0 0.00 0.00 0.00 1020.1
20260901083201 -17 0.0 0.0 0.00 0.00 0.00 1020.1
20260901082715 -17 0.0 0.0 0.00 0.00 0.00 1020.0
20260901082209 -17 0.0 0.0 0.00 0.00 0.00 1020.0
20260901081703 -17 0.0 0.0 0.00 0.00 0.00 1020.0
20260901081219 -17 0.0 0.0 0.00 0.00 0.00 1020.0
20260901080715 -17 0.0 0.0 0.00 0.00 0.00 1020.0
20260901080208 -17 0.0 0.0 0.00 0.00 0.00 1020.0
20260901075703 -17 0.0 0.0 0.00 0.00 0.00 1020.0
20260901075213 -17 0.0 0.0 0.00 0.00 0.00 1020.0
20260901074708 -17 0.0 0.0 0.00 0.00 0.00 1020.0
20260901074203 -17 0.0 0.0 0.00 0.00 0.00 1020.0
20260901073718 -17 0.0 0.0 0.00 0.00 0.00 1020.0
20260901073213 -17 0.0 0.0 0.00 0.00 0.00 1020.0
20260901072706 -17 0.0 0.0 0.00 0.00 0.00 1019.9
20260901072202 -17 0.0 0.0 0.00 0.00 0.00 1019.9
20260901071717 -17 0.0 0.0 0.00 0.00 0.00 1019.9
20260901071212 -17 0.0 0.0 0.00 0.00 0.00 1019.8
20260901070709 -17 0.0 0.0 0.00 0.00 0.00 1019.8
20260901070219 -17 0.0 0.0 0.00 0.00 0.00 1019.8
20260901065714 -17 0.0 0.0 0.00 0.00 0.00 1019.8
20260901065209 -17 0.0 0.0 0.00 0.00 0.00 1019.8
20260901064705 -17 0.0 0.0 0.00 0.00 0.00 1019.8
20260901064219 -17 0.0 0.0 0.00 0.00 0.00 1019.8
20260901063714 -17 0.0 0.0 0.00 0.00 0.00 1019.8
20260901063209 -17 0.0 0.0 0.00 0.00 0.00 1019.8
20260901062705 -17 0.0 0.0 0.00 0.00 0.00 1019.8
20260901062219 -17 0.0 0.0 0.00 0.00 0.00 1019.8
20260901061708 -17 0.0 0.0 0.00 0.00 0.00 1019.8
20260901061218 -17 0.0 0.0 0.00 0.00 0.00 1020.4
20260901060712 -17 0.0 0.0 0.00 0.00 0.00 1020.4
20260901060207 -17 0.0 0.0 0.00 0.00 0.00 1020.4
20260901055702 -17 0.0 0.0 0.00 0.00 0.00 1020.4
20260901055215 -17 0.0 0.0 0.00 0.00 0.00 1020.4
20260901054710 -17 0.0 0.0 0.00 0.00 0.00 1020.4
20260901054204 -17 0.0 0.0 0.00 0.00 0.00 1020.2
20260901053719 -17 0.0 0.0 0.00 0.00 0.00 1020.2
20260901053214 -17 0.0 0.0 0.00 0.00 0.00 1020.2
20260901052709 -17 0.0 0.0 0.00 0.00 0.00 1020.3
20260901052220 -17 0.0 0.0 0.00 0.00 0.00 1020.3
20260901051715 -17 0.0 0.0 0.00 0.00 0.00 1020.3
20260901051210 -17 0.0 0.0 0.00 0.00 0.00 1020.1
20260901050704 -17 0.0 0.0 0.00 0.00 0.00 1020.1
20260901050218 -17 0.0 0.0 0.00 0.00 0.00 1020.1
20260901045712 -17 0.0 0.0 0.00 0.00 0.00 1020.0
20260901045206 -17 0.0 0.0 0.00 0.00 0.00 1020.0
20260901044701 -17 0.0 0.0 0.00 0.00 0.00 1020.0
20260901044216 -17 0.0 0.0 0.00 0.00 0.00 1019.9
20260901043711 -17 0.0 0.0 0.00 0.00 0.00 1019.9
20260901043201 -17 0.0 0.0 0.00 0.00 0.00 1019.9
20260901042716 -17 0.0 0.0 0.00 0.00 0.00 1019.9
20260901042210 -17 0.0 0.0 0.00 0.00 0.00 1019.9
20260901041704 -17 0.0 0.0 0.00 0.00 0.00 1019.9
20260901041218 -17 0.0 0.0 0.00 0.00 0.00 1019.5
20260901040712 -17 0.0 0.0 0.00 0.00 0.00 1019.5
20260901040208 -17 0.0 0.0 0.00 0.00 0.00 1019.5
20260901035703 -17 0.0 0.0 0.00 0.00 0.00 1019.5
20260901035219 -17 0.0 0.0 0.00 0.00 0.00 1019.5
20260901034712 -17 0.0 0.0 0.00 0.00 0.00 1019.5
20260901034203 -17 0.0 0.0 0.00 0.00 0.00 1019.5
20260901033213 -17 0.0 0.0 0.00 0.00 0.00 1019.5
20260901032707 -17 0.0 0.0 0.00 0.00 0.00 1019.5
20260901032202 -17 0.0 0.0 0.00 0.00 0.00 1019.5
20260901031716 -17 0.0 0.0 0.00 0.00 0.00 1019.5
20260901031209 -17 0.0 0.0 0.00 0.00 0.00 1019.9
20260901030703 -17 0.0 0.0 0.00 0.00 0.00 1019.9
20260901030218 -17 0.0 0.0 0.00 0.00 0.00 1019.9
20260901025712 -17 0.0 0.0 0.00 0.00 0.00 1020.0
20260901025203 -17 0.0 0.0 0.00 0.00 0.00 1020.0
20260901024718 -17 0.0 0.0 0.00 0.00 0.00 1020.0
20260901024214 -17 0.0 0.0 0.00 0.00 0.00 1020.0
20260901023708 -17 0.0 0.0 0.00 0.00 0.00 1020.0
20260901023204 -17 0.0 0.0 0.00 0.00 0.00 1020.0
20260901022719 -17 0.0 0.0 0.00 0.00 0.00 1020.0
20260901022216 -17 0.0 0.0 0.00 0.00 0.00 1020.0
20260901021710 -17 0.0 0.0 0.00 0.00 0.00 1020.0
20260901021205 -17 0.0 0.0 0.00 0.00 0.00 1019.7
20260901020720 -17 0.0 0.0 0.00 0.00 0.00 1019.7
20260901020212 -17 0.0 0.0 0.00 0.00 0.00 1019.7
20260901015708 -17 0.0 0.0 0.00 0.00 0.00 1019.7
20260901015203 -17 0.0 0.0 0.00 0.00 0.00 1019.7
20260901014718 -17 0.0 0.0 0.00 0.00 0.00 1019.7
20260901014214 -17 0.0 0.0 0.00 0.00 0.00 1019.6
20260901013709 -17 0.0 0.0 0.00 0.00 0.00 1019.6
20260901013204 -17 0.0 0.0 0.00 0.00 0.00 1019.6
20260901012719 -17 0.0 0.0 0.00 0.00 0.00 1019.4
20260901012215 -17 0.0 0.0 0.00 0.00 0.00 1019.4
20260901011710 -17 0.0 0.0 0.00 0.00 0.00 1019.4
20260901011206 -17 0.0 0.0 0.00 0.00 0.00 1019.6
20260901010717 -17 0.0 0.0 0.00 0.00 0.00 1019.6
20260901010211 -17 0.0 0.0 0.00 0.00 0.00 1019.6
20260901005706 -17 0.0 0.0 0.00 0.00 0.00 1019.6
20260901005201 -17 0.0 0.0 0.00 0.00 0.00 1019.6
20260901004715 -17 0.0 0.0 0.00 0.00 0.00 1019.6
20260901004211 -17 0.0 0.0 0.00 0.00 0.00 1019.6
20260901003706 -17 0.0 0.0 0.00 0.00 0.00 1019.6
20260901003220 -17 0.0 0.0 0.00 0.00 0.00 1019.6
20260901002713 -17 0.0 0.0 0.00 0.00 0.00 1019.6
20260901002209 -17 0.0 0.0 0.00 0.00 0.00 1019.6
20260901001721 -17 0.0 0.0 0.00 0.00 0.00 1019.6
20260901001214 -17 0.0 0.0 0.00 0.00 0.00 1019.5
20260901000710 -17 0.0 0.0 0.00 0.00 0.00 1019.5
20260901000206 -17 0.0 0.0 0.00 0.00 0.00 1019.5
20260831235701 -17 0.0 0.0 0.00 0.00 0.00 1019.4
20260831235215 -17 0.0 0.0 0.00 0.00 0.00 1019.4
20260831234710 -17 0.0 0.0 0.00 0.00 0.00 1019.4
20260831234205 -17 0.0 0.0 0.00 0.00 0.00 1019.4
20260831233719 -17 0.0 0.0 0.00 0.00 0.00 1019.4
20260831233212 -17 0.0 0.0 0.00 0.00 0.00 1019.4
20260831232702 -17 0.0 0.0 0.00 0.00 0.00 1019.5
20260831232216 -17 0.0 0.0 0.00 0.00 0.00 1019.5
20260831231711 -17 0.0 0.0 0.00 0.00 0.00 1019.5
20260831231207 -17 0.0 0.0 0.00 0.00 0.00 1019.6
20260831230703 -17 0.0 0.0 0.00 0.00 0.00 1019.6
20260831230217 -17 0.0 0.0 0.00 0.00 0.00 1019.6
20260831225712 -17 0.0 0.0 0.00 0.00 0.00 1019.6
20260831225206 -17 0.0 0.0 0.00 0.00 0.00 1019.6
20260831224703 -17 0.0 0.0 0.00 0.00 0.00 1019.6
20260831224218 -17 0.0 0.0 0.00 0.00 0.00 1019.6
20260831223709 -17 0.0 0.0 0.00 0.00 0.00 1019.6
20260831223203 -17 0.0 0.0 0.00 0.00 0.00 1019.6
20260831222718 -17 0.0 0.0 0.00 0.00 0.00 1019.6
20260831222214 -17 0.0 0.0 0.00 0.00 0.00 1019.6
20260831221710 -17 0.0 0.0 0.00 0.00 0.00 1019.6
20260831221204 -17 0.0 0.0 0.00 0.00 0.00 1019.8
20260831220719 -17 0.0 0.0 0.00 0.00 0.00 1019.8
20260831220213 -17 0.0 0.0 0.00 0.00 0.33 1019.8
20260831215707 -17 0.0 0.0 0.00 0.00 0.33 1019.8
20260831215203 -17 0.0 0.0 0.00 0.00 0.33 1019.8
20260831214714 -17 0.0 0.0 0.00 0.00 0.33 1019.8
20260831214209 -17 0.0 0.0 0.00 0.00 0.33 1019.7
20260831213702 -17 0.0 0.0 0.00 0.00 0.33 1019.7
20260831213219 -17 0.0 0.0 0.00 0.00 0.33 1019.7
20260831212715 -17 0.0 0.0 0.00 0.00 0.33 1019.7
20260831212211 -17 0.0 0.0 0.00 0.00 0.33 1019.7
20260831211707 -17 0.0 0.0 0.00 0.00 0.33 1019.7
20260831211222 -17 0.0 0.0 0.00 0.00 0.33 1019.1
20260831210716 -17 0.0 0.0 0.00 0.00 0.33 1019.1
20260831210210 -17 0.0 0.0 0.00 0.00 0.33 1019.1
20260831205705 -17 0.0 0.0 0.00 0.00 0.33 1019.1
20260831205216 -17 0.0 0.0 0.00 0.00 0.33 1019.1
20260831204719 -17 0.0 0.0 0.00 0.00 0.33 1019.1
20260831204214 18 0.0 0.0 0.00 0.00 0.33 56 1019.0
20260831203709 18 360 9.7 0.0 0.00 0.00 0.33 56 1019.0
20260831203220 18 259 8.0 0.0 0.00 0.00 0.33 56 1019.0
20260831202718 18 275 4.8 0.0 0.00 0.00 0.33 55 1018.8
20260831202217 18 278 3.2 0.0 0.00 0.00 0.33 55 1018.8
20260831201719 18 287 1.6 0.0 0.00 0.00 0.33 55 1018.8
20260831201219 18 243 0.0 0.0 0.00 0.00 0.33 55 1018.4
20260831200723 18 360 1.6 0.0 0.00 0.00 0.33 55 1018.4
20260831200208 18 360 1.6 0.0 0.00 0.00 0.33 54 1018.4
20260831195720 18 259 1.6 0.0 0.00 0.00 0.33 55 1018.3
20260831195205 18 259 6.4 0.0 0.00 0.00 0.33 55 1018.3
20260831194714 18 254 8.0 0.0 0.00 0.00 0.33 55 1018.3
20260831194223 18 250 8.0 0.0 0.00 0.00 0.33 54 1017.9
20260831193707 18 281 6.4 0.0 0.00 0.00 0.33 55 1017.9
20260831193211 18 254 3.2 0.0 0.00 0.00 0.33 55 1017.9
20260831192721 18 360 3.2 0.0 0.00 0.00 0.33 55 1017.8
20260831192205 18 269 3.2 0.0 0.00 0.00 0.33 55 1017.8
20260831191710 19 273 3.2 0.0 0.00 0.00 0.33 55 1017.8
20260831191216 19 268 1.6 0.0 0.00 0.00 0.33 55 1017.5
20260831190703 19 227 0.0 0.0 0.00 0.00 0.33 54 1017.5
20260831190208 19 360 1.6 0.0 0.00 0.00 0.33 54 1017.5
20260831185721 19 270 1.6 0.0 0.00 0.00 0.33 54 1017.4
20260831185213 19 360 0.0 0.0 0.00 0.00 0.33 54 1017.4
20260831184704 19 225 0.0 0.0 0.00 0.00 0.33 53 1017.4
20260831184210 20 242 0.0 0.0 0.00 0.00 0.33 53 1016.9
20260831183716 20 189 0.0 0.0 0.00 0.00 0.33 53 1016.9
20260831183221 20 244 1.6 0.0 0.00 0.00 0.33 52 1016.9
20260831182716 20 246 1.6 0.0 0.00 0.00 0.33 52 1016.4
20260831182204 20 360 1.6 0.0 0.00 0.00 0.33 51 1016.4
20260831181719 20 360 1.6 0.0 0.00 0.00 0.33 51 1016.4
20260831181214 20 238 3.2 0.0 0.00 0.00 0.33 51 1016.4
20260831180709 20 245 3.2 0.0 0.00 0.00 0.33 50 1016.4
20260831180222 20 260 1.6 0.0 0.00 0.00 0.33 50 1016.4
20260831175705 21 360 3.2 0.0 0.00 0.00 0.33 49 1016.2
20260831175211 21 275 4.8 0.0 0.00 0.00 0.33 49 1016.2
20260831174716 21 285 6.4 0.0 0.00 0.00 0.33 48 1016.2
20260831174221 21 360 6.4 0.0 0.00 0.00 0.33 48 1015.7
20260831173723 21 273 6.4 0.0 0.00 0.00 0.33 48 1015.7
20260831173225 21 360 4.8 0.0 0.00 0.00 0.33 47 1015.7
20260831172714 21 253 6.4 0.0 0.00 0.00 0.33 47 1015.6
20260831172206 21 360 9.7 0.0 0.00 0.00 0.33 46 1015.6
20260831171710 21 273 11.3 0.0 0.00 0.00 0.33 46 1015.6
20260831171214 21 290 11.3 0.0 0.00 0.00 0.33 46 1015.6
20260831170717 21 360 9.7 0.0 0.00 0.00 0.33 46 1015.6
20260831170202 21 281 12.9 0.0 0.00 0.00 0.33 46 1015.6
20260831165708 21 287 12.9 0.0 0.00 0.00 0.33 46 1015.5
20260831165213 22 286 8.0 0.0 0.00 0.00 0.33 46 1015.5
20260831164712 22 252 6.4 0.0 0.00 0.00 0.33 44 1015.5
20260831164218 22 360 6.4 0.0 0.00 0.00 0.33 44 1015.4
20260831163705 22 260 9.7 0.0 0.00 0.00 0.33 44 1015.4
20260831163206 22 247 8.0 0.0 0.00 0.00 0.33 44 1015.4
20260831162716 22 245 4.8 0.0 0.00 0.00 0.33 43 1015.3
20260831162215 22 278 6.4 0.0 0.00 0.00 0.33 43 1015.3
20260831161721 22 267 6.4 0.0 0.00 0.00 0.33 45 1015.3
20260831161207 22 360 4.8 0.0 0.00 0.00 0.33 43 1015.1
20260831160710 22 225 4.8 0.0 0.00 0.00 0.33 43 1015.1
20260831160214 23 303 3.2 0.0 0.00 0.00 0.33 44 1015.1
20260831155709 23 137 4.8 0.0 0.00 0.00 0.33 43 1015.0
20260831155219 23 269 3.2 0.0 0.00 0.00 0.33 44 1015.0
20260831154715 23 180 4.8 0.0 0.00 0.00 0.33 44 1015.0
20260831154220 23 213 6.4 0.0 0.00 0.00 0.33 43 1015.0
20260831153717 23 299 3.2 0.0 0.00 0.00 0.33 44 1015.0
20260831153220 23 360 6.4 0.0 0.00 0.00 0.33 45 1015.0
20260831152706 23 172 8.0 0.0 0.00 0.00 0.33 44 1015.3
20260831152213 23 288 8.0 0.0 0.00 0.00 0.33 44 1015.3
20260831151718 23 123 4.8 0.0 0.00 0.00 0.33 43 1015.3
20260831151220 23 360 3.2 0.0 0.00 0.00 0.33 45 1015.5
20260831150704 22 102 4.8 0.0 0.00 0.00 0.33 47 1015.5
20260831150216 22 271 8.0 0.0 0.00 0.00 0.33 47 1015.5
20260831145719 22 360 9.7 0.0 0.00 0.00 0.33 46 1015.4
20260831145209 22 252 12.9 0.0 0.00 0.00 0.33 44 1015.4
20260831144714 23 243 14.5 0.0 0.00 0.00 0.33 45 1015.4
20260831144209 23 288 12.9 0.0 0.00 0.00 0.33 46 1015.3
20260831143714 23 242 11.3 0.0 0.00 0.00 0.33 46 1015.3
20260831143214 23 360 11.3 0.0 0.00 0.00 0.33 43 1015.3
20260831142717 23 274 16.1 0.0 0.00 0.00 0.33 44 1015.2
20260831142219 23 272 16.1 0.0 0.00 0.00 0.33 43 1015.2
20260831141724 23 336 12.9 0.0 0.00 0.00 0.33 45 1015.2